Location: PSU-Greenbush Astrophysical Observatory
(37.5140°N, 94.9880°W)
Time: 08:37:01
(UTC-06:00)

Transit 2A - Pass Details

Date: 01 February 2020
Orbit: 599 x 959 km, 66.7° (Epoch: 28 February)

Event Time Altitude Azimuth Distance (km) Brightness Sun altitude
Rises 17:56:06 0° 201° (SSW) 2,916 9.7 -3.2°
Reaches altitude 10° 17:58:25 10° 200° (SSW) 1,980 8.8 -3.6°
Maximum altitude 18:02:48 72° 116° (ESE) 636 5.5 -4.4°
Drops below altitude 10° 18:07:07 10° 32° (NNE) 1,943 7.7 -5.2°
Sets 18:09:22 0° 30° (NNE) 2,858 8.5 -5.6°
